| time (UTC) | temp C | wind direction | speed KPH | gust KPH | rain 1hr cm | rain 24hr cm | rain mn cm | humidity % | barometer mb |
| 20260510215904 | 14 | 30 | 8.0 | 16.1 | 0.00 | 0.23 | 0.18 | 88 | 1012.9 |
| 20260510215405 | 14 | 30 | 6.4 | 16.1 | 0.00 | 0.23 | 0.18 | 88 | 1013.0 |
| 20260510214904 | 14 | 41 | 9.7 | 19.3 | 0.00 | 0.23 | 0.18 | 88 | 1012.9 |
| 20260510214405 | 14 | 31 | 8.0 | 16.1 | 0.00 | 0.23 | 0.18 | 88 | 1012.9 |
| 20260510213906 | 14 | 6 | 8.0 | 19.3 | 0.00 | 0.23 | 0.18 | 87 | 1013.0 |
| 20260510213404 | 14 | 19 | 6.4 | 19.3 | 0.00 | 0.23 | 0.18 | 87 | 1012.9 |
| 20260510212404 | 14 | 29 | 3.2 | 25.7 | 0.00 | 0.23 | 0.18 | 86 | 1012.9 |
| 20260510211904 | 14 | 26 | 8.0 | 24.1 | 0.00 | 0.23 | 0.18 | 86 | 1012.8 |
| 20260510211405 | 14 | 34 | 6.4 | 16.1 | 0.00 | 0.23 | 0.18 | 86 | 1012.9 |
| 20260510210405 | 14 | 34 | 6.4 | 12.9 | 0.00 | 0.23 | 0.18 | 86 | 1012.7 |
| 20260510205905 | 14 | 37 | 9.7 | 19.3 | 0.00 | 0.23 | 0.18 | 86 | 1012.7 |
| 20260510205404 | 14 | 41 | 9.7 | 19.3 | 0.00 | 0.23 | 0.18 | 86 | 1012.7 |
| 20260510204905 | 14 | 30 | 4.8 | 16.1 | 0.00 | 0.23 | 0.18 | 86 | 1012.7 |
| 20260510204405 | 14 | 26 | 9.7 | 20.9 | 0.00 | 0.23 | 0.18 | 86 | 1012.6 |
| 20260510203404 | 14 | 28 | 8.0 | 19.3 | 0.00 | 0.23 | 0.18 | 86 | 1012.6 |
| 20260510202404 | 14 | 32 | 8.0 | 19.3 | 0.00 | 0.23 | 0.18 | 86 | 1012.6 |
| 20260510201905 | 15 | 23 | 9.7 | 14.5 | 0.00 | 0.23 | 0.18 | 86 | 1012.5 |
| 20260510201404 | 15 | 24 | 9.7 | 16.1 | 0.00 | 0.23 | 0.18 | 85 | 1012.5 |
| 20260510200904 | 15 | 32 | 4.8 | 11.3 | 0.00 | 0.23 | 0.18 | 84 | 1012.3 |
| 20260510195404 | 15 | 32 | 8.0 | 20.9 | 0.00 | 0.23 | 0.18 | 82 | 1012.1 |
| 20260510194905 | 15 | 32 | 6.4 | 19.3 | 0.00 | 0.23 | 0.18 | 82 | 1012.1 |
| 20260510194404 | 15 | 49 | 8.0 | 19.3 | 0.00 | 0.23 | 0.18 | 82 | 1012.1 |
| 20260510193905 | 15 | 39 | 14.5 | 29.0 | 0.00 | 0.23 | 0.18 | 82 | 1012.1 |
| 20260510193405 | 15 | 47 | 9.7 | 19.3 | 0.00 | 0.23 | 0.18 | 82 | 1012.1 |
| 20260510192405 | 15 | 46 | 3.2 | 19.3 | 0.00 | 0.23 | 0.18 | 81 | 1012.0 |
| 20260510191906 | 15 | 33 | 9.7 | 20.9 | 0.00 | 0.23 | 0.18 | 80 | 1012.0 |
| 20260510191405 | 15 | 41 | 11.3 | 19.3 | 0.00 | 0.23 | 0.18 | 79 | 1011.9 |
| 20260510190906 | 15 | 50 | 8.0 | 16.1 | 0.00 | 0.23 | 0.18 | 79 | 1011.9 |
| 20260510190405 | 15 | 41 | 11.3 | 19.3 | 0.00 | 0.23 | 0.18 | 79 | 1011.8 |
| 20260510185905 | 15 | 49 | 8.0 | 19.3 | 0.00 | 0.23 | 0.18 | 79 | 1011.8 |
| 20260510185405 | 15 | 31 | 11.3 | 22.5 | 0.00 | 0.23 | 0.18 | 78 | 1011.8 |
| 20260510184905 | 16 | 37 | 16.1 | 35.4 | 0.00 | 0.23 | 0.18 | 77 | 1011.8 |
| 20260510184405 | 16 | 38 | 12.9 | 33.8 | 0.00 | 0.23 | 0.18 | 76 | 1011.7 |
| 20260510183905 | 16 | 35 | 11.3 | 20.9 | 0.00 | 0.23 | 0.18 | 77 | 1011.6 |
| 20260510183405 | 16 | 52 | 8.0 | 14.5 | 0.00 | 0.23 | 0.18 | 77 | 1011.6 |
| 20260510182905 | 16 | 54 | 6.4 | 16.1 | 0.00 | 0.23 | 0.18 | 78 | 1011.5 |
| 20260510181906 | 16 | 45 | 8.0 | 14.5 | 0.00 | 0.23 | 0.18 | 80 | 1011.6 |
| 20260510181405 | 16 | 73 | 4.8 | 14.5 | 0.00 | 0.23 | 0.18 | 81 | 1011.6 |
| 20260510180905 | 16 | 78 | 3.2 | 12.9 | 0.00 | 0.23 | 0.18 | 80 | 1011.6 |
| 20260510180405 | 16 | 53 | 3.2 | 20.9 | 0.00 | 0.23 | 0.18 | 79 | 1011.6 |
| 20260510175905 | 16 | 62 | 9.7 | 24.1 | 0.03 | 0.23 | 0.18 | 77 | 1011.6 |
| 20260510175406 | 16 | 38 | 11.3 | 24.1 | 0.03 | 0.23 | 0.18 | 77 | 1011.5 |
| 20260510174905 | 16 | 26 | 11.3 | 22.5 | 0.03 | 0.23 | 0.18 | 76 | 1011.5 |
| 20260510174405 | 16 | 39 | 4.8 | 19.3 | 0.03 | 0.23 | 0.18 | 78 | 1011.5 |
| 20260510173406 | 16 | 74 | 9.7 | 22.5 | 0.03 | 0.23 | 0.18 | 79 | 1011.3 |
| 20260510172905 | 16 | 47 | 8.0 | 19.3 | 0.03 | 0.23 | 0.18 | 81 | 1011.4 |
| 20260510172406 | 16 | 39 | 9.7 | 19.3 | 0.03 | 0.23 | 0.18 | 81 | 1011.4 |
| 20260510171406 | 15 | 37 | 8.0 | 20.9 | 0.03 | 0.23 | 0.18 | 82 | 1011.4 |
| 20260510170905 | 16 | 32 | 11.3 | 19.3 | 0.03 | 0.23 | 0.18 | 82 | 1011.3 |
| 20260510170405 | 16 | 48 | 11.3 | 32.2 | 0.03 | 0.23 | 0.18 | 80 | 1011.4 |
| 20260510165905 | 16 | 27 | 17.7 | 35.4 | 0.00 | 0.23 | 0.15 | 79 | 1011.3 |
| 20260510163905 | 16 | 28 | 14.5 | 25.7 | 0.00 | 0.33 | 0.15 | 81 | 1011.4 |
| 20260510163405 | 16 | 29 | 11.3 | 22.5 | 0.00 | 0.33 | 0.15 | 79 | 1011.5 |
| 20260510162405 | 16 | 21 | 14.5 | 20.9 | 0.05 | 0.33 | 0.15 | 77 | 1011.5 |
| 20260510161905 | 16 | 32 | 11.3 | 22.5 | 0.05 | 0.33 | 0.15 | 77 | 1011.4 |
| 20260510161405 | 16 | 32 | 12.9 | 25.7 | 0.05 | 0.33 | 0.15 | 77 | 1011.4 |
| 20260510160905 | 16 | 27 | 16.1 | 33.8 | 0.05 | 0.33 | 0.15 | 79 | 1011.5 |
| 20260510160405 | 16 | 51 | 8.0 | 20.9 | 0.05 | 0.33 | 0.15 | 81 | 1011.5 |
| 20260510155905 | 16 | 58 | 3.2 | 12.9 | 0.05 | 0.33 | 0.15 | 82 | 1011.5 |
| 20260510155405 | 16 | 36 | 3.2 | 19.3 | 0.05 | 0.33 | 0.15 | 82 | 1011.6 |
| 20260510154905 | 15 | 33 | 11.3 | 19.3 | 0.05 | 0.33 | 0.15 | 83 | 1011.6 |
| 20260510154407 | 15 | 71 | 8.0 | 22.5 | 0.05 | 0.33 | 0.15 | 84 | 1011.6 |
| 20260510152905 | 17 | 62 | 20.9 | 35.4 | 0.03 | 0.30 | 0.13 | 72 | 1011.7 |
| 20260510152405 | 17 | 60 | 8.0 | 24.1 | 0.00 | 0.28 | 0.10 | 69 | 1011.6 |
| 20260510151905 | 17 | 45 | 8.0 | 20.9 | 0.00 | 0.28 | 0.10 | 68 | 1011.4 |
| 20260510150905 | 17 | 47 | 20.9 | 38.6 | 0.00 | 0.28 | 0.10 | 66 | 1011.4 |
| 20260510150405 | 18 | 39 | 16.1 | 41.8 | 0.00 | 0.28 | 0.10 | 62 | 1011.3 |
| 20260510145905 | 18 | 48 | 19.3 | 37.0 | 0.00 | 0.28 | 0.10 | 60 | 1011.3 |
| 20260510145405 | 18 | 72 | 16.1 | 37.0 | 0.00 | 0.28 | 0.10 | 60 | 1011.3 |
| 20260510144905 | 18 | 38 | 11.3 | 35.4 | 0.00 | 0.28 | 0.10 | 59 | 1011.3 |
| 20260510144405 | 18 | 37 | 17.7 | 33.8 | 0.00 | 0.28 | 0.10 | 59 | 1011.3 |
| 20260510143906 | 18 | 33 | 19.3 | 33.8 | 0.00 | 0.28 | 0.10 | 58 | 1011.3 |
| 20260510143405 | 18 | 26 | 17.7 | 40.2 | 0.00 | 0.28 | 0.10 | 56 | 1011.2 |
| 20260510142904 | 19 | 38 | 17.7 | 33.8 | 0.00 | 0.28 | 0.10 | 56 | 1011.3 |
| 20260510142405 | 19 | 49 | 19.3 | 35.4 | 0.00 | 0.28 | 0.10 | 55 | 1011.3 |
| 20260510141905 | 19 | 43 | 9.7 | 25.7 | 0.00 | 0.28 | 0.10 | 55 | 1011.2 |
| 20260510141405 | 19 | 52 | 9.7 | 29.0 | 0.00 | 0.28 | 0.10 | 56 | 1011.3 |
| 20260510140905 | 19 | 60 | 9.7 | 24.1 | 0.00 | 0.28 | 0.10 | 54 | 1011.2 |
| 20260510140405 | 19 | 28 | 16.1 | 41.8 | 0.00 | 0.28 | 0.10 | 54 | 1011.3 |
| 20260510135905 | 19 | 60 | 14.5 | 38.6 | 0.00 | 0.28 | 0.10 | 52 | 1011.3 |
| 20260510135405 | 20 | 44 | 14.5 | 29.0 | 0.00 | 0.28 | 0.10 | 51 | 1011.2 |
| 20260510134905 | 20 | 63 | 8.0 | 22.5 | 0.00 | 0.28 | 0.10 | 53 | 1011.2 |
| 20260510134405 | 19 | 57 | 11.3 | 32.2 | 0.00 | 0.28 | 0.10 | 52 | 1011.3 |
| 20260510133905 | 20 | 47 | 16.1 | 38.6 | 0.00 | 0.28 | 0.10 | 52 | 1011.2 |
| 20260510133405 | 20 | 70 | 11.3 | 33.8 | 0.00 | 0.28 | 0.10 | 52 | 1011.3 |
| 20260510132905 | 19 | 32 | 16.1 | 37.0 | 0.00 | 0.28 | 0.10 | 54 | 1011.2 |
| 20260510132405 | 19 | 44 | 16.1 | 29.0 | 0.00 | 0.28 | 0.10 | 54 | 1011.3 |
| 20260510131905 | 19 | 91 | 12.9 | 24.1 | 0.00 | 0.28 | 0.10 | 56 | 1011.4 |
| 20260510131405 | 18 | 45 | 16.1 | 32.2 | 0.00 | 0.28 | 0.10 | 56 | 1011.4 |
| 20260510125905 | 18 | 40 | 12.9 | 32.2 | 0.00 | 0.28 | 0.10 | 56 | 1011.4 |
| 20260510125405 | 18 | 44 | 9.7 | 25.7 | 0.00 | 0.28 | 0.10 | 59 | 1011.3 |
| 20260510124905 | 18 | 81 | 9.7 | 20.9 | 0.00 | 0.28 | 0.10 | 61 | 1011.4 |
| 20260510124405 | 18 | 86 | 8.0 | 19.3 | 0.00 | 0.28 | 0.10 | 65 | 1011.5 |
| 20260510123905 | 17 | 56 | 8.0 | 24.1 | 0.00 | 0.28 | 0.10 | 64 | 1011.6 |
| 20260510123405 | 18 | 59 | 14.5 | 22.5 | 0.00 | 0.28 | 0.10 | 62 | 1011.5 |
| 20260510122905 | 18 | 23 | 16.1 | 29.0 | 0.00 | 0.28 | 0.10 | 62 | 1011.5 |
| 20260510122405 | 18 | 43 | 14.5 | 29.0 | 0.00 | 0.28 | 0.10 | 62 | 1011.7 |
| 20260510121405 | 17 | 39 | 11.3 | 29.0 | 0.00 | 0.28 | 0.10 | 62 | 1011.8 |
| 20260510120905 | 17 | 29 | 8.0 | 20.9 | 0.00 | 0.28 | 0.10 | 64 | 1011.8 |
| 20260510120405 | 16 | 55 | 11.3 | 32.2 | 0.00 | 0.28 | 0.10 | 65 | 1011.8 |
| 20260510115905 | 16 | 48 | 14.5 | 29.0 | 0.00 | 0.28 | 0.10 | 65 | 1011.9 |
| 20260510115405 | 16 | 69 | 17.7 | 32.2 | 0.00 | 0.28 | 0.10 | 64 | 1011.9 |
| 20260510114905 | 16 | 45 | 14.5 | 32.2 | 0.00 | 0.28 | 0.10 | 63 | 1012.0 |
| 20260510114405 | 17 | 39 | 19.3 | 37.0 | 0.00 | 0.28 | 0.10 | 60 | 1012.0 |
| 20260510113905 | 17 | 40 | 20.9 | 40.2 | 0.00 | 0.28 | 0.10 | 58 | 1011.9 |
| 20260510113405 | 18 | 40 | 25.7 | 41.8 | 0.00 | 0.28 | 0.10 | 56 | 1011.9 |
| 20260510112905 | 18 | 73 | 19.3 | 41.8 | 0.00 | 0.28 | 0.10 | 55 | 1011.8 |
| 20260510112405 | 18 | 44 | 22.5 | 45.1 | 0.00 | 0.28 | 0.10 | 52 | 1011.7 |
| 20260510111905 | 19 | 49 | 12.9 | 37.0 | 0.00 | 0.28 | 0.10 | 52 | 1011.7 |
| 20260510111405 | 18 | 54 | 14.5 | 32.2 | 0.00 | 0.28 | 0.10 | 50 | 1011.6 |
| 20260510110905 | 19 | 67 | 12.9 | 22.5 | 0.00 | 0.28 | 0.10 | 52 | 1011.6 |
| 20260510105905 | 18 | 90 | 17.7 | 29.0 | 0.00 | 0.28 | 0.10 | 53 | 1011.6 |
| 20260510105405 | 18 | 41 | 17.7 | 33.8 | 0.00 | 0.28 | 0.10 | 53 | 1011.5 |
| 20260510104905 | 17 | 64 | 25.7 | 40.2 | 0.00 | 0.28 | 0.10 | 57 | 1011.7 |
| 20260510104405 | 17 | 37 | 1.6 | 14.5 | 0.00 | 0.28 | 0.10 | 69 | 1011.6 |
| 20260510103905 | 17 | 155 | 1.6 | 11.3 | 0.00 | 0.28 | 0.10 | 70 | 1011.7 |
| 20260510103405 | 17 | 121 | 4.8 | 19.3 | 0.00 | 0.28 | 0.10 | 68 | 1011.8 |
| 20260510102905 | 17 | 76 | 9.7 | 20.9 | 0.00 | 0.28 | 0.10 | 62 | 1011.7 |
| 20260510102404 | 17 | 97 | 8.0 | 20.9 | 0.00 | 0.28 | 0.10 | 64 | 1011.8 |
| 20260510101905 | 17 | 30 | 14.5 | 29.0 | 0.00 | 0.28 | 0.10 | 64 | 1011.5 |
| 20260510101405 | 17 | 21 | 16.1 | 38.6 | 0.00 | 0.28 | 0.10 | 64 | 1011.4 |
| 20260510100905 | 17 | 44 | 14.5 | 37.0 | 0.00 | 0.28 | 0.10 | 64 | 1011.4 |
| 20260510100404 | 17 | 10 | 14.5 | 25.7 | 0.00 | 0.28 | 0.10 | 64 | 1011.4 |
| 20260510095905 | 16 | 27 | 14.5 | 25.7 | 0.00 | 0.28 | 0.10 | 67 | 1011.6 |
| 20260510095405 | 16 | 18 | 14.5 | 29.0 | 0.00 | 0.28 | 0.10 | 69 | 1011.7 |
| 20260510094905 | 16 | 53 | 12.9 | 20.9 | 0.00 | 0.28 | 0.10 | 69 | 1011.6 |
| 20260510094405 | 16 | 36 | 14.5 | 25.7 | 0.00 | 0.28 | 0.10 | 67 | 1011.6 |
| 20260510093404 | 16 | 34 | 11.3 | 19.3 | 0.00 | 0.28 | 0.10 | 68 | 1011.6 |
| 20260510092405 | 16 | 38 | 11.3 | 33.8 | 0.00 | 0.28 | 0.10 | 71 | 1011.7 |
| 20260510091904 | 16 | 43 | 17.7 | 32.2 | 0.00 | 0.28 | 0.10 | 71 | 1011.8 |
| 20260510090905 | 16 | 51 | 14.5 | 20.9 | 0.00 | 0.28 | 0.10 | 72 | 1011.8 |
| 20260510090405 | 16 | 36 | 19.3 | 24.1 | 0.00 | 0.28 | 0.10 | 71 | 1011.6 |
| 20260510085904 | 16 | 40 | 11.3 | 25.7 | 0.00 | 0.28 | 0.10 | 73 | 1011.6 |
| 20260510085405 | 16 | 46 | 9.7 | 22.5 | 0.00 | 0.28 | 0.10 | 74 | 1011.7 |
| 20260510084905 | 15 | 38 | 14.5 | 25.7 | 0.00 | 0.28 | 0.10 | 75 | 1011.6 |
| 20260510084405 | 15 | 58 | 14.5 | 24.1 | 0.00 | 0.28 | 0.10 | 74 | 1011.5 |
| 20260510083905 | 15 | 29 | 14.5 | 25.7 | 0.00 | 0.28 | 0.10 | 76 | 1011.6 |
| 20260510082905 | 15 | 23 | 16.1 | 29.0 | 0.00 | 0.28 | 0.10 | 77 | 1011.7 |
| 20260510082405 | 15 | 47 | 4.8 | 12.9 | 0.00 | 0.28 | 0.10 | 78 | 1011.6 |
| 20260510081905 | 14 | 24 | 6.4 | 20.9 | 0.00 | 0.28 | 0.10 | 79 | 1011.7 |
| 20260510081405 | 14 | 25 | 9.7 | 16.1 | 0.00 | 0.28 | 0.10 | 79 | 1011.7 |
| 20260510080904 | 14 | 40 | 9.7 | 16.1 | 0.00 | 0.28 | 0.10 | 80 | 1011.7 |
| 20260510075904 | 13 | 28 | 9.7 | 20.9 | 0.05 | 0.28 | 0.10 | 84 | 1011.8 |
| 20260510075405 | 13 | 32 | 8.0 | 19.3 | 0.08 | 0.28 | 0.10 | 86 | 1011.7 |
| 20260510074905 | 12 | 14 | 6.4 | 12.9 | 0.08 | 0.30 | 0.10 | 87 | 1011.7 |
| 20260510073905 | 12 | 36 | 6.4 | 14.5 | 0.08 | 0.30 | 0.10 | 89 | 1011.6 |
| 20260510073404 | 12 | 38 | 3.2 | 12.9 | 0.08 | 0.30 | 0.10 | 90 | 1011.5 |
| 20260510072905 | 12 | 37 | 3.2 | 11.3 | 0.08 | 0.30 | 0.10 | 90 | 1011.4 |
| 20260510072405 | 12 | 81 | 1.6 | 9.7 | 0.08 | 0.30 | 0.10 | 91 | 1011.4 |
| 20260510071905 | 12 | 68 | 3.2 | 11.3 | 0.08 | 0.33 | 0.10 | 91 | 1011.5 |
| 20260510071405 | 12 | 56 | 4.8 | 12.9 | 0.08 | 0.33 | 0.10 | 90 | 1011.4 |
| 20260510070904 | 12 | 70 | 8.0 | 19.3 | 0.08 | 0.33 | 0.10 | 90 | 1011.4 |
| 20260510065905 | 12 | 39 | 4.8 | 11.3 | 0.03 | 0.28 | 0.05 | 91 | 1011.5 |
| 20260510065404 | 12 | 37 | 3.2 | 11.3 | 0.00 | 0.30 | 0.03 | 91 | 1011.4 |
| 20260510064905 | 12 | 37 | 6.4 | 9.7 | 0.00 | 0.33 | 0.03 | 91 | 1011.2 |
| 20260510064405 | 12 | 32 | 4.8 | 11.3 | 0.00 | 0.33 | 0.03 | 91 | 1011.1 |
| 20260510063905 | 12 | 32 | 6.4 | 12.9 | 0.00 | 0.36 | 0.03 | 91 | 1011.2 |
| 20260510063405 | 12 | 45 | 3.2 | 12.9 | 0.00 | 0.38 | 0.03 | 91 | 1011.1 |
| 20260510062905 | 12 | 30 | 4.8 | 12.9 | 0.00 | 0.38 | 0.03 | 91 | 1011.2 |
| 20260510062405 | 12 | 42 | 6.4 | 11.3 | 0.00 | 0.41 | 0.03 | 91 | 1011.1 |
| 20260510061905 | 12 | 22 | 8.0 | 11.3 | 0.00 | 0.41 | 0.03 | 91 | 1011.0 |
| 20260510060904 | 12 | 33 | 8.0 | 11.3 | 0.00 | 0.43 | 0.03 | 91 | 1010.9 |
| 20260510055904 | 12 | 29 | 4.8 | 14.5 | 0.03 | 0.43 | 0.03 | 91 | 1010.8 |
| 20260510055406 | 12 | 37 | 11.3 | 16.1 | 0.03 | 0.43 | 0.03 | 92 | 1010.7 |
| 20260510054404 | 12 | 19 | 9.7 | 19.3 | 0.03 | 0.43 | 0.03 | 92 | 1010.6 |
| 20260510053905 | 12 | 45 | 8.0 | 16.1 | 0.03 | 0.43 | 0.03 | 92 | 1010.5 |
| 20260510053405 | 12 | 40 | 6.4 | 11.3 | 0.03 | 0.43 | 0.03 | 92 | 1010.5 |
| 20260510052905 | 12 | 47 | 3.2 | 12.9 | 0.03 | 0.43 | 0.03 | 92 | 1010.4 |
| 20260510052405 | 12 | 33 | 8.0 | 11.3 | 0.03 | 0.43 | 0.03 | 92 | 1010.4 |
| 20260510051405 | 12 | 58 | 8.0 | 14.5 | 0.03 | 0.43 | 0.03 | 93 | 1010.2 |
| 20260510050904 | 12 | 20 | 9.7 | 19.3 | 0.03 | 0.43 | 0.03 | 93 | 1010.2 |
| 20260510050405 | 12 | 68 | 4.8 | 12.9 | 0.03 | 0.43 | 0.03 | 93 | 1010.4 |
| 20260510045905 | 12 | 31 | 8.0 | 12.9 | 0.00 | 0.41 | 0.00 | 93 | 1010.2 |
| 20260510044905 | 11 | 21 | 6.4 | 14.5 | 0.00 | 0.41 | 0.00 | 93 | 1010.2 |
| 20260510043905 | 11 | 25 | 9.7 | 14.5 | 0.00 | 0.41 | 0.00 | 92 | 1010.2 |
| 20260510043404 | 11 | 9 | 9.7 | 14.5 | 0.00 | 0.41 | 0.00 | 92 | 1010.2 |
| 20260510042905 | 11 | 29 | 8.0 | 14.5 | 0.00 | 0.41 | 0.00 | 92 | 1010.2 |
| 20260510042404 | 11 | 28 | 8.0 | 14.5 | 0.00 | 0.41 | 0.00 | 92 | 1010.2 |
| 20260510041905 | 11 | 10 | 8.0 | 12.9 | 0.00 | 0.41 | 0.00 | 92 | 1010.2 |
| 20260510041404 | 11 | 23 | 9.7 | 16.1 | 0.00 | 0.41 | 0.00 | 92 | 1010.2 |
| 20260510040904 | 11 | 20 | 8.0 | 12.9 | 0.00 | 0.41 | 0.00 | 92 | 1010.2 |
| 20260510040405 | 11 | 24 | 8.0 | 11.3 | 0.00 | 0.41 | 0.00 | 92 | 1010.3 |
| 20260510035905 | 11 | 10 | 8.0 | 12.9 | 0.00 | 0.41 | 0.00 | 92 | 1010.4 |
| 20260510035404 | 11 | 27 | 3.2 | 12.9 | 0.00 | 0.41 | 0.00 | 91 | 1010.4 |
| 20260510034905 | 11 | 16 | 8.0 | 14.5 | 0.00 | 0.41 | 0.00 | 91 | 1010.3 |
| 20260510034405 | 11 | 26 | 8.0 | 11.3 | 0.00 | 0.51 | 0.00 | 91 | 1010.3 |
| 20260510032404 | 12 | 31 | 4.8 | 11.3 | 0.00 | 0.51 | 0.00 | 91 | 1010.1 |
| 20260510031905 | 12 | 26 | 6.4 | 11.3 | 0.00 | 0.51 | 0.00 | 91 | 1010.2 |
| 20260510031405 | 12 | 355 | 6.4 | 12.9 | 0.00 | 0.51 | 0.00 | 91 | 1010.2 |
| 20260510030905 | 12 | 10 | 8.0 | 20.9 | 0.00 | 0.51 | 0.00 | 91 | 1010.3 |
| 20260510030404 | 12 | 4 | 11.3 | 19.3 | 0.00 | 0.51 | 0.00 | 92 | 1010.2 |
| 20260510024904 | 12 | 22 | 8.0 | 22.5 | 0.00 | 0.51 | 0.00 | 92 | 1010.2 |
| 20260510024405 | 12 | 17 | 8.0 | 12.9 | 0.00 | 0.51 | 0.00 | 91 | 1010.0 |
| 20260510023905 | 12 | 15 | 4.8 | 11.3 | 0.00 | 0.51 | 0.00 | 91 | 1010.0 |
| 20260510022904 | 12 | 24 | 6.4 | 16.1 | 0.00 | 0.51 | 0.00 | 91 | 1010.0 |
| 20260510021904 | 12 | 17 | 8.0 | 19.3 | 0.00 | 0.51 | 0.00 | 91 | 1010.0 |
| 20260510021405 | 12 | 10 | 9.7 | 19.3 | 0.00 | 0.51 | 0.00 | 91 | 1010.2 |
| 20260510020905 | 12 | 26 | 9.7 | 19.3 | 0.00 | 0.51 | 0.00 | 91 | 1010.3 |
| 20260510020405 | 12 | 15 | 6.4 | 14.5 | 0.00 | 0.51 | 0.00 | 91 | 1010.4 |
| 20260510015904 | 12 | 34 | 6.4 | 12.9 | 0.00 | 0.51 | 0.00 | 91 | 1010.4 |
| 20260510015404 | 12 | 34 | 8.0 | 12.9 | 0.00 | 0.51 | 0.00 | 91 | 1010.4 |
| 20260510014905 | 12 | 23 | 8.0 | 14.5 | 0.00 | 0.51 | 0.00 | 92 | 1010.5 |
| 20260510014404 | 12 | 12 | 9.7 | 14.5 | 0.00 | 0.51 | 0.00 | 92 | 1010.4 |
| 20260510013905 | 12 | 16 | 8.0 | 19.3 | 0.00 | 0.51 | 0.00 | 92 | 1010.5 |
| 20260510013405 | 12 | 12 | 8.0 | 19.3 | 0.00 | 0.51 | 0.00 | 92 | 1010.5 |
| 20260510012904 | 12 | 25 | 6.4 | 14.5 | 0.00 | 0.51 | 0.00 | 92 | 1010.5 |
| 20260510012405 | 13 | 30 | 8.0 | 14.5 | 0.00 | 0.51 | 0.00 | 92 | 1010.6 |
| 20260510011404 | 13 | 19 | 8.0 | 11.3 | 0.00 | 0.51 | 0.00 | 92 | 1010.7 |
| 20260510010904 | 13 | 14 | 8.0 | 12.9 | 0.00 | 0.51 | 0.00 | 92 | 1010.8 |
| 20260510005905 | 13 | 9 | 6.4 | 12.9 | 0.00 | 0.51 | 0.00 | 92 | 1010.8 |
| 20260510005404 | 13 | 22 | 3.2 | 14.5 | 0.00 | 0.51 | 0.00 | 92 | 1010.9 |
| 20260510003904 | 12 | 47 | 4.8 | 9.7 | 0.00 | 0.51 | 0.00 | 92 | 1010.9 |
| 20260510003405 | 13 | 18 | 3.2 | 4.8 | 0.00 | 0.51 | 0.00 | 92 | 1011.0 |
| 20260510002404 | 13 | 45 | 9.7 | 19.3 | 0.00 | 0.51 | 0.00 | 92 | 1011.1 |
| 20260510001905 | 12 | 37 | 8.0 | 24.1 | 0.00 | 0.51 | 0.00 | 92 | 1011.0 |
| 20260510001405 | 12 | 27 | 1.6 | 19.3 | 0.00 | 0.51 | 0.00 | 93 | 1011.0 |
| 20260510000904 | 12 | 29 | 3.2 | 11.3 | 0.00 | 0.51 | 0.00 | 92 | 1011.2 |
| 20260510000404 | 12 | 55 | 1.6 | 8.0 | 0.00 | 0.51 | 0.00 | 92 | 1011.2 |
| 20260509235905 | 12 | 55 | 1.6 | 8.0 | 0.00 | 0.51 | 0.00 | 93 | 1011.2 |
| 20260509235404 | 12 | 55 | 0.0 | 3.2 | 0.00 | 0.51 | 0.00 | 92 | 1011.3 |
| 20260509234904 | 12 | 55 | 0.0 | 0.0 | 0.00 | 0.51 | 0.00 | 92 | 1011.3 |
| 20260509234405 | 12 | 55 | 0.0 | 4.8 | 0.00 | 0.51 | 0.00 | 92 | 1011.4 |
| 20260509233404 | 12 | 55 | 0.0 | 1.6 | 0.00 | 0.51 | 0.00 | 92 | 1011.5 |
| 20260509232904 | 12 | 55 | 0.0 | 0.0 | 0.03 | 0.51 | 0.00 | 92 | 1011.5 |
| 20260509232404 | 12 | 55 | 0.0 | 1.6 | 0.05 | 0.51 | 0.00 | 92 | 1011.5 |
| 20260509231905 | 12 | 55 | 0.0 | 3.2 | 0.05 | 0.51 | 0.00 | 92 | 1011.5 |
| 20260509231405 | 12 | 33 | 3.2 | 16.1 | 0.05 | 0.51 | 0.00 | 92 | 1011.4 |
| 20260509230904 | 13 | 45 | 3.2 | 9.7 | 0.05 | 0.51 | 0.00 | 92 | 1011.3 |
| 20260509230405 | 12 | 13 | 6.4 | 12.9 | 0.05 | 0.51 | 0.00 | 92 | 1011.4 |
| 20260509225905 | 12 | 22 | 6.4 | 14.5 | 0.05 | 0.51 | 0.51 | 92 | 1011.3 |
| 20260509225404 | 12 | 32 | 9.7 | 12.9 | 0.05 | 0.51 | 0.51 | 92 | 1011.2 |
| 20260509224904 | 12 | 20 | 8.0 | 12.9 | 0.05 | 0.51 | 0.51 | 92 | 1011.2 |
| 20260509224404 | 12 | 10 | 8.0 | 12.9 | 0.05 | 0.51 | 0.51 | 92 | 1011.2 |
| 20260509223904 | 13 | 30 | 8.0 | 20.9 | 0.05 | 0.51 | 0.51 | 92 | 1011.2 |
| 20260509223405 | 13 | 19 | 9.7 | 20.9 | 0.05 | 0.51 | 0.51 | 91 | 1011.4 |
| 20260509222904 | 13 | 13 | 8.0 | 19.3 | 0.05 | 0.51 | 0.51 | 91 | 1011.3 |
| 20260509222405 | 13 | 37 | 8.0 | 16.1 | 0.00 | 0.48 | 0.48 | 91 | 1011.3 |
| 20260509221904 | 13 | 27 | 4.8 | 14.5 | 0.00 | 0.48 | 0.48 | 91 | 1011.2 |